Temp_Advection
nan nan nan nan nan nan nan nan nan nan nan nan nan nan nan nan nan nan nan nan nan nan
nan -0 -0 -1 -0 -0 -0 -0 -0 -0 -0 0 0 -0 -1 -1 1 0 -0 -0 -0 nan
nan 0 -0 -0 -0 -0 -0 -0 -0 -0 -0 -0 0 0 -0 -0 -0 0 -0 -0 -0 nan
nan 0 -0 0 -0 -0 -0 -0 -0 -0 0 -0 0 0 0 -0 -0 -0 -0 1 0 nan
nan 0 -0 -0 -0 -0 -0 -0 -0 -0 0 0 -0 0 0 0 0 -0 -0 0 0 nan
nan 0 0 -0 -0 -1 -0 -0 -0 -0 0 0 -0 -0 0 -0 0 0 0 0 -0 nan
nan 0 0 0 -0 -0 -0 -0 -0 -0 -0 -0 -0 -0 -0 -0 -0 0 0 0 -0 nan
nan 0 0 0 -0 -0 -0 -0 -0 -0 -0 -0 -0 -0 -0 -0 -0 -0 -0 0 -0 nan
nan -0 0 0 -0 -0 -0 -0 -0 -0 -0 -0 -0 -0 -0 -0 -0 -0 0 -0 -0 nan
nan -0 -0 0 -0 -0 -0 -0 -0 -0 -0 -0 -0 -0 -0 -0 -0 -0 -0 -0 -0 nan
nan 0 -0 0 -0 -0 -0 -0 -0 -0 -0 -0 -0 -0 -0 -0 -0 -0 -0 -0 -0 nan
nan 0 -0 0 0 -0 -0 -0 -0 -0 -0 -0 -0 -0 -0 0 -0 -0 -0 -0 -0 nan
nan -0 -0 0 0 -0 -0 -0 -0 -0 -0 -0 -0 -0 -0 -0 -0 -0 -0 -0 -0 nan
nan nan nan nan nan nan nan nan nan nan nan nan nan nan nan nan nan nan nan nan nan nan
Wind_Speed
17 16 16 14 14 15 15 13 13 15 16 17 18 19 19 19 19 19 21 22 24 25
15 14 15 15 14 15 15 15 17 17 18 16 16 17 19 20 22 20 19 22 24 26
15 12 12 14 13 12 13 16 16 18 20 20 19 18 19 19 17 15 17 19 23 25
16 13 12 14 13 11 13 15 17 21 23 22 21 18 19 17 15 15 17 19 21 22
17 14 12 14 14 13 16 15 19 22 21 21 19 18 18 17 19 18 18 18 18 19
15 17 14 15 15 14 15 15 20 21 21 21 16 15 16 17 18 18 18 18 16 17
18 18 16 14 15 14 14 16 20 18 19 16 16 14 15 15 15 15 14 14 16 15
20 18 13 13 15 14 15 17 18 15 14 13 12 12 14 11 12 11 9 10 11 13
18 16 11 13 14 13 14 15 14 13 12 10 9 11 9 8 8 9 6 5 10 9
17 14 11 11 12 12 12 12 13 12 10 10 9 8 5 7 7 3 3 3 5 6
16 12 11 10 11 11 11 12 11 11 10 10 7 5 4 4 6 5 5 5 8 9
16 12 11 10 10 11 10 10 10 9 9 8 4 4 3 3 3 3 4 7 8 8
17 12 11 9 10 10 9 9 9 10 7 6 4 4 5 5 6 5 6 9 10 10
16 11 10 10 9 9 9 8 7 8 8 4 3 6 7 7 6 6 8 11 14 16
Wind_Direction
324 322 314 311 310 314 313 311 315 317 317 316 312 307 303 297 290 272 264 259 261 262
326 319 313 318 313 312 315 311 313 317 315 309 304 300 300 303 299 276 269 267 262 268
333 321 317 318 317 307 307 306 313 318 317 310 302 299 304 304 314 287 278 271 266 265
341 322 314 318 315 309 309 311 315 317 313 308 301 300 299 309 302 292 289 290 268 267
344 331 313 313 307 308 309 311 321 317 320 319 309 298 296 304 303 290 287 284 279 276
333 329 313 312 310 310 311 319 316 315 318 317 320 305 303 305 306 299 293 286 280 281
329 323 316 317 314 317 317 326 323 320 316 317 320 320 316 313 317 310 306 287 281 288
326 323 318 313 313 318 325 328 327 322 319 321 321 330 332 312 310 310 307 297 289 294
327 326 318 311 314 324 335 329 329 330 333 334 331 333 329 337 332 340 320 326 310 305
328 325 313 313 323 334 338 339 342 335 333 339 332 335 1 22 8 22 46 35 27 9
327 320 310 316 327 328 332 337 337 341 344 341 339 353 15 26 37 14 31 42 35 26
325 320 308 312 319 319 331 336 339 341 348 345 343 6 28 62 57 48 65 62 50 38
325 320 309 306 307 314 327 330 343 353 348 356 31 54 71 71 63 59 62 61 62 58
325 315 307 305 303 307 309 326 339 348 353 1 55 70 69 64 55 69 76 80 77 73
Height
1503 1502 1500 1498 1496 1495 1495 1494 1493 1490 1488 1485 1484 1482 1480 1478 1476 1476 1476 1476 1477 1477
1501 1499 1497 1494 1494 1493 1492 1491 1489 1487 1485 1483 1480 1478 1475 1473 1471 1470 1470 1471 1471 1471
1498 1497 1495 1493 1491 1491 1490 1488 1486 1484 1481 1478 1476 1473 1471 1468 1466 1465 1466 1465 1465 1466
1496 1494 1493 1491 1489 1488 1486 1485 1483 1480 1476 1473 1471 1469 1467 1465 1463 1462 1461 1460 1459 1460
1494 1493 1491 1489 1487 1484 1483 1481 1479 1476 1472 1469 1466 1464 1463 1461 1459 1457 1456 1456 1455 1455
1494 1491 1489 1487 1484 1481 1480 1477 1475 1472 1469 1465 1462 1460 1458 1457 1455 1453 1451 1451 1450 1450
1491 1488 1486 1484 1482 1479 1476 1474 1471 1468 1465 1462 1460 1458 1456 1454 1452 1450 1448 1447 1446 1446
1488 1486 1484 1483 1480 1477 1473 1471 1468 1465 1463 1460 1458 1457 1453 1451 1450 1448 1446 1445 1444 1442
1485 1483 1482 1481 1478 1474 1471 1469 1466 1463 1461 1459 1457 1455 1453 1450 1448 1446 1445 1444 1442 1441
1483 1481 1480 1478 1475 1472 1470 1468 1465 1462 1460 1458 1456 1454 1452 1450 1448 1446 1445 1443 1442 1440
1482 1480 1478 1476 1473 1471 1469 1467 1464 1462 1459 1457 1455 1453 1451 1450 1449 1448 1447 1445 1443 1442
1480 1478 1476 1474 1472 1471 1468 1466 1464 1461 1459 1456 1455 1453 1452 1451 1449 1449 1448 1447 1446 1444
1478 1475 1473 1472 1471 1470 1468 1466 1464 1461 1459 1458 1456 1454 1452 1451 1451 1451 1451 1448 1447 1446
1475 1473 1472 1470 1470 1469 1467 1466 1464 1462 1460 1459 1456 1455 1454 1453 1453 1453 1452 1451 1450 1449